Retour au catalogue

STARLINK-3635

ActifCommunicationsVLEO
NORAD 51981·PAYLOAD·🇺🇸 United States

Lancé Mar 9, 2022 depuis Cape Canaveral Space Force Station

Loading…

Prochains Passages (prochaines 24 heures)

TLE

FraisSource: CelesTrak SupGP

Époque: Sep 14, 2026, 21:42 UTC

1 51981C 22025AB  26257.90465278  .00025856  00000+0  73973-3 0  2572
2 51981  53.1578 261.6496 0001219  88.8112 351.7288 15.35387031    11

Suivez STARLINK-3635 en temps réel avec AllMySat

Download on the App Store